Location: Katowice
(50.2611°N, 19.0242°E)
Time: 23:38:38
(UTC+02:00)

A-11 Canister half - Pass Details

Date: 22 July 2019
Orbit: 1526 x 1683 km, 47.3° (Epoch: 18 August)

Event Time Altitude Azimuth Distance (km) Brightness Sun altitude
Rises 00:11:58 0° 266° (W) 4,889 11.7 -18.8°
Reaches altitude 10° 00:15:08 10° 265° (W) 3,884 11.2 -18.9°
Maximum altitude 00:25:01 76° 183° (S) 1,649 8.9 -19.1°
Drops below altitude 10° 00:34:33 10° 100° (E) 3,758 10.9 -19.3°
Sets 00:37:34 0° 99° (E) 4,724 11.4 -19.3°
